Presure
125 108 132 139 122 127 114 132 124 150 118 92 116 124 133 121 120 135 126 104 122 119 97 90 86 122 154 92 116 124 131 123 119 121 120 159 189 134 125 118 114 113 123 179 162 112 130 144 187
129 125 118 129 120 140 123 139 133 134 127 145 124 148 143 158 105 123 112 125 125 123 128 143 103 106 128 107 123 115 117 125 131 126 124 143 170 121 145 142 123 125 128 117 128 124 151 155 126
118 134 127 132 140 130 139 123 114 126 146 159 112 115 108 115 116 129 120 101 106 129 124 111 124 111 132 116 118 113 125 131 165 128 168 150 169 140 104 180 124 132 113 120 160 182 141 183 230
140 131 126 117 124 125 132 115 129 89 125 111 127 137 117 108 113 109 116 119 103 112 128 126 116 129 102 106 136 108 122 130 141 137 125 137 182 181 162 104 146 104 118 198 122 118 216 186 198
128 129 126 136 125 112 142 124 127 140 107 111 148 131 135 125 136 110 118 115 126 100 132 139 127 152 138 139 103 130 115 115 118 148 135 169 125 184 135 155 110 131 197 184 135 187 207 190 170
131 131 147 131 177 117 129 132 137 116 107 132 135 148 133 118 99 142 118 132 132 114 103 108 103 126 180 132 111 130 124 122 143 127 116 106 187 185 152 138 140 174 208 157 142 131 184 199 186
140 125 145 121 219 144 124 143 118 121 131 122 120 121 141 122 121 123 123 119 131 120 109 131 124 136 159 123 132 119 114 138 137 160 191 194 186 187 204 184 195 192 140 173 156 188 189 174 187
133 125 141 147 145 128 221 118 125 131 134 118 150 129 120 136 122 142 135 146 120 129 133 140 139 150 127 118 103 129 127 179 142 216 180 181 195 181 176 134 190 174 190 185 188 175 176 185 181
159 122 180 141 143 106 128 122 130 150 153 133 136 103 125 137 131 131 137 145 135 141 214 117 155 133 122 140 137 126 168 171 162 182 200 201 192 194 191 195 192 188 182 177 186 189 183 190 189
119 144 127 130 138 129 141 127 138 165 133 123 110 111 132 129 133 123 127 133 130 133 130 131 124 115 124 132 120 147 171 187 197 191 187 181 185 184 184 201 185 180 188 188 174 182 193 195 193
116 150 118 155 133 245 141 150 160 143 139 134 144 124 126 127 136 139 132 131 140 126 136 131 116 127 124 124 135 134 130 205 198 134 207 191 190 187 195 178 189 189 184 185 207 195 203 195 201
141 142 139 135 160 277 144 155 203 120 147 137 149 140 137 139 132 127 115 236 133 127 138 127 124 127 128 188 188 209 203 188 191 198 188 197 188 185 185 188 180 178 183 191 197 196 195 242 250
127 149 128 188 155 234 147 147 150 125 145 129 134 111 160 242 202 123 124 136 135 139 137 188 173 125 120 133 199 188 196 185 189 192 185 189 186 183 186 184 186 184 202 198 193 231 244 251 237
180 151 253 147 154 138 145 141 150 152 125 136 138 172 222 140 175 166 199 135 133 133 129 126 182 133 174 196 196 196 190 201 196 186 183 188 184 192 184 194 199 195 190 224 214 227 234 221 213
125 133 256 167 143 148 142 133 133 135 147 251 160 157 238 143 137 133 129 135 124 128 126 119 132 211 207 205 208 206 202 189 186 190 205 210 194 193 193 195 188 235 231 227 221 227 207 221 212
222 136 212 225 142 145 163 208 238 252 146 203 136 129 138 156 135 128 125 126 125 131 195 148 207 209 206 204 205 213 204 200 192 193 196 193 195 208 209 206 232 222 223 221 215 205 210 211 203
190 184 239 243 240 241 149 233 230 174 234 177 172 173 151 134 131 130 132 169 216 216 213 209 212 202 202 203 201 201 198 195 194 191 188 190 199 220 234 228 223 230 225 201 207 205 206 206 200
135 136 234 194 236 235 222 138 135 228 129 132 201 201 160 137 158 135 220 217 211 216 219 209 205 202 201 199 192 196 196 192 188 191 188 216 213 240 229 219 213 199 200 200 202 205 205 191 193
237 143 138 239 133 135 134 158 138 131 134 142 138 208 179 159 212 220 216 212 217 214 202 200 194 189 187 189 190 194 188 193 207 221 220 228 221 212 203 198 201 196 204 205 203 192 197 211 233
208 226 206 233 229 216 218 224 156 212 203 212 209 210 204 207 205 198 210 201 198 200 203 200 194 193 191 203 204 202 207 235 229 218 212 206 197 199 200 199 204 213 232 232 229 231 230 232 223
228 230 227 217 217 225 212 212 209 215 210 217 216 211 206 200 198 204 198 190 201 189 189 191 200 203 200 218 212 233 225 216 209 201 197 205 205 227 257 259 260 270 270 246 239 225 214 210 201
223 221 219 227 227 223 219 215 211 217 216 204 208 203 201 195 207 197 195 198 195 201 203 195 208 222 221 208 222 211 208 200 205 212 203 218 223 225 226 227 227 230 223 216 214 203 200 195 193
223 222 230 223 224 218 223 229 216 210 208 210 202 200 202 201 203 200 203 201 202 205 218 220 219 223 220 209 208 201 213 200 218 228 224 230 224 221 210 206 205 206 204 201 196 195 196 193 199
209 213 213 209 212 214 214 205 202 205 197 199 196 196 201 203 206 210 216 219 216 215 230 223 215 204 200 203 204 203 221 219 214 207 206 210 206 207 211 217 211 203 200 201 195 196 192 194 190
213 213 208 208 212 209 206 205 215 198 205 201 214 215 217 216 212 217 215 223 227 219 213 205 194 200 202 206 213 220 213 204 200 199 201 204 219 213 206 194 216 223 221 207 204 197 198 195 200
207 209 210 209 209 211 211 211 206 209 209 209 200 209 217 213 209 220 226 213 209 204 197 203 200 211 214 211 216 203 197 194 196 203 197 193 192 209 226 230 232 215 218 209 201 203 201 222 222
208 215 215 215 216 211 215 211 209 203 207 216 212 204 210 209 219 212 209 198 204 202 200 197 207 208 205 204 201 201 194 200 194 186 193 205 208 206 223 226 217 215 208 203 211 219 214 226 239
217 210 210 206 209 207 204 209 214 215 209 205 221 217 217 209 209 200 210 202 199 199 199 205 204 202 184 202 199 192 190 187 194 199 199 201 202 211 221 236 217 205 206 211 210 212 224 232 251
207 208 204 207 210 215 216 211 209 208 216 218 216 210 204 199 210 202 197 199 199 209 202 201 194 198 190 193 200 191 191 191 185 195 202 202 211 213 236 236 212 205 211 220 215 227 243 252 271
209 215 223 216 214 211 211 212 204 232 220 213 204 201 199 195 200 199 199 199 208 202 197 198 192 194 193 190 199 187 194 178 177 192 202 206 216 239 235 211 204 205 224 226 229 238 251 265 243
Wind_Speed
58 37 53 56 52 52 36 56 34 45 44 34 41 45 44 38 33 44 50 39 38 35 36 33 29 34 64 41 47 46 49 52 57 61 64 79 91 65 67 65 60 61 65 90 79 64 68 77 87
63 57 50 60 44 59 51 52 44 44 54 50 37 56 51 52 34 44 41 48 45 49 48 59 44 38 51 47 53 51 57 58 60 66 64 71 85 67 77 77 70 67 72 65 70 68 80 80 71
51 61 53 50 60 42 62 32 39 51 57 64 40 31 32 35 34 49 44 40 40 52 49 39 43 43 52 50 51 54 56 62 81 66 84 73 86 72 54 96 70 75 61 67 78 93 73 80 77
70 61 53 37 29 37 45 41 57 18 43 40 46 50 40 33 33 36 41 43 41 37 48 48 42 56 46 50 61 55 56 63 70 67 69 74 89 89 83 56 79 56 67 92 69 67 89 83 86
57 59 43 67 40 38 59 45 58 62 40 46 59 45 51 45 54 39 46 46 56 40 57 57 50 68 63 64 51 57 60 62 61 75 70 89 63 93 74 80 60 73 93 87 75 84 91 85 87
59 44 62 43 55 22 48 54 62 34 34 52 59 61 52 43 36 59 49 61 62 48 44 45 47 57 72 59 53 60 59 64 74 67 66 57 93 96 79 75 78 86 94 85 81 80 88 90 87
65 35 62 35 47 60 33 54 51 45 57 33 40 29 62 41 43 46 52 47 63 54 48 57 57 61 81 56 62 55 59 73 71 82 91 90 95 94 90 87 98 95 83 91 86 91 91 79 98
53 30 67 67 59 29 38 58 59 45 44 30 64 51 43 61 38 64 64 71 56 64 64 70 67 76 54 56 51 66 66 89 79 82 93 95 95 95 95 78 97 93 97 93 94 83 86 94 95
62 20 62 52 59 44 51 44 48 63 54 31 42 43 46 56 50 60 53 73 73 74 78 50 82 63 55 73 71 64 74 85 79 95 88 90 96 98 97 99 96 100 95 90 97 97 95 100 97
22 64 23 30 46 48 58 29 32 72 32 22 44 43 57 44 57 56 64 76 66 69 60 64 60 50 60 67 56 84 80 92 87 91 92 96 95 98 97 89 98 97 101 100 85 95 101 98 97
39 32 36 57 46 35 55 66 69 49 44 28 62 36 42 49 63 75 69 73 77 65 73 65 55 65 62 63 68 78 67 87 87 70 77 93 93 93 86 98 102 103 104 102 103 99 101 98 97
51 55 45 45 40 33 37 65 59 44 59 41 53 53 58 51 65 57 52 46 64 62 76 64 63 68 71 88 87 80 85 87 89 85 88 86 90 96 95 99 100 101 104 108 107 105 102 73 62
28 57 31 34 59 39 59 55 53 30 58 42 41 45 61 47 49 63 50 63 66 74 77 70 71 66 60 71 82 85 87 85 86 85 88 93 94 97 100 100 104 105 104 106 101 91 74 68 63
40 33 23 46 56 41 49 36 54 52 43 48 50 36 38 53 51 59 55 66 64 68 66 68 76 78 79 81 82 81 82 79 79 86 93 94 96 98 98 101 101 101 100 92 87 79 73 70 72
33 29 23 56 46 58 45 34 35 42 52 26 52 57 20 64 63 61 56 65 60 64 65 60 74 68 73 74 73 70 71 81 84 87 83 84 92 96 99 96 96 88 85 81 78 73 78 72 75
22 41 26 28 39 44 44 36 33 27 53 34 46 48 51 52 56 55 57 59 62 71 57 69 60 58 64 66 68 65 63 76 77 82 83 87 93 91 92 97 80 81 80 77 76 78 77 75 75
30 28 23 26 28 29 44 21 21 41 19 33 37 39 47 54 55 58 62 51 39 42 44 49 48 55 61 61 64 66 68 74 77 81 88 88 89 85 79 78 80 79 78 81 80 81 79 79 77
31 35 20 28 21 22 20 42 44 24 45 47 29 31 44 53 49 60 34 37 41 37 37 42 44 53 56 58 64 67 69 74 81 83 84 81 78 67 71 75 77 83 83 84 84 84 84 83 83
21 35 38 20 41 41 43 37 43 45 48 50 53 27 39 64 31 29 30 30 32 38 44 44 52 60 64 66 70 72 75 78 79 76 73 68 70 74 77 80 81 85 85 83 85 85 87 88 81
23 18 20 17 22 24 21 21 38 25 26 28 27 25 31 29 31 37 34 39 43 42 46 53 58 62 66 70 72 73 72 62 61 64 67 70 76 78 78 82 81 79 75 76 74 75 74 72 73
18 20 22 24 25 25 27 25 24 28 27 26 26 29 31 34 35 34 39 45 48 52 54 58 63 63 65 64 64 55 57 60 63 69 73 72 74 69 61 63 65 66 67 71 72 71 73 74 81
19 20 14 23 23 27 29 30 29 29 28 28 34 37 36 37 41 42 43 46 49 52 54 58 61 59 57 58 53 57 59 66 66 65 69 64 66 67 68 69 69 69 71 73 72 77 80 84 87
16 7 10 19 19 24 27 27 24 24 25 30 30 33 33 39 42 44 46 50 52 54 55 52 51 49 49 54 57 63 59 65 59 57 60 59 64 67 70 73 76 77 78 80 82 85 90 91 93
12 14 16 20 20 23 24 18 26 22 29 37 33 37 40 42 47 50 50 49 48 49 45 44 46 52 57 59 59 60 53 53 56 62 66 67 71 73 74 73 76 79 81 83 86 88 94 94 95
16 18 19 23 23 23 25 25 21 34 33 41 37 41 40 41 42 42 42 41 40 42 44 48 55 56 57 56 55 49 51 58 63 64 66 68 67 72 78 80 79 77 80 86 88 92 94 102 104
21 22 25 25 22 26 33 33 25 36 36 35 36 38 37 36 38 37 35 41 43 47 51 50 54 51 50 51 47 54 60 64 67 64 68 74 78 77 79 78 77 82 82 86 92 95 99 98 104
25 26 27 28 28 27 33 30 32 32 35 35 34 35 35 36 34 38 40 45 45 49 51 53 48 48 52 52 53 55 61 63 69 75 78 76 78 82 85 82 80 82 86 92 94 94 101 104 108
25 26 22 25 28 30 28 34 32 33 33 33 31 33 32 36 38 43 42 46 45 50 51 50 48 50 59 54 55 61 64 69 72 76 78 81 84 87 90 89 85 89 93 95 98 101 105 108 112
26 26 27 29 32 33 32 28 34 32 32 31 31 33 37 40 40 44 46 49 49 44 49 53 56 55 61 61 61 65 69 71 74 78 81 85 89 91 94 89 89 93 97 99 102 104 107 111 112
27 30 30 30 29 32 30 30 26 28 30 30 34 36 38 43 44 47 47 50 48 49 52 54 60 60 63 66 65 71 73 78 81 84 87 91 95 97 91 90 94 97 102 103 106 109 114 113 108
Wind_Direction
248 238 238 240 257 259 259 256 262 245 260 253 257 263 267 273 278 266 278 281 283 285 278 288 300 285 286 294 276 285 286 277 278 280 284 291 281 286 281 284 290 289 288 293 287 290 290 288 293
242 244 244 246 260 239 262 256 265 248 248 262 262 259 266 271 264 275 272 284 278 280 287 280 270 286 287 276 288 277 290 286 285 287 283 291 287 285 287 286 286 291 288 291 288 291 290 290 288
252 240 252 253 239 256 252 256 239 255 258 253 257 266 270 264 274 273 276 273 274 282 276 274 287 272 286 279 280 281 284 286 288 285 290 289 289 291 295 288 289 290 294 292 294 291 294 300 304
237 246 255 249 262 264 236 263 250 274 266 260 274 268 270 266 278 270 278 286 278 272 285 282 285 283 279 277 285 284 279 285 288 286 281 282 285 285 292 294 286 294 293 296 292 292 304 293 307
237 252 258 250 261 245 244 263 263 258 255 257 259 276 268 276 268 268 274 273 282 282 283 282 281 282 281 282 284 282 280 284 290 289 282 290 292 289 292 288 294 295 295 294 295 301 305 303 299
240 239 242 239 241 232 242 258 239 257 256 259 264 259 280 273 269 268 279 275 275 271 282 277 282 283 277 281 280 285 281 283 288 286 289 292 289 286 291 292 293 292 299 297 297 293 300 306 302
237 263 246 236 245 243 263 238 259 255 259 262 254 273 261 279 278 280 282 279 278 275 277 283 278 283 280 286 288 284 284 292 289 290 286 288 288 290 293 295 296 296 292 296 295 300 303 300 303
250 265 249 250 257 244 241 252 257 263 266 267 250 263 267 264 276 267 270 272 273 279 281 280 282 283 284 284 291 289 291 284 292 287 289 291 291 292 296 292 295 292 295 296 299 300 300 300 300
242 237 247 258 260 236 241 257 263 254 247 271 267 268 276 271 281 273 268 270 274 274 262 287 281 286 286 291 291 291 286 287 287 288 284 286 287 288 292 293 292 292 296 297 296 294 298 298 298
224 245 265 245 249 258 251 262 267 242 275 247 257 256 264 274 270 273 271 270 279 282 287 286 288 288 290 291 289 291 289 280 282 282 283 288 289 289 291 290 292 293 292 293 299 298 295 297 299
238 261 253 249 268 231 264 257 252 275 273 262 257 255 271 275 265 259 267 274 273 280 282 286 290 291 293 294 292 295 291 276 283 291 287 284 285 287 286 290 290 292 294 296 293 296 297 300 300
262 266 266 268 262 208 265 250 246 262 262 273 269 258 264 268 265 271 270 243 280 287 282 288 290 291 291 272 274 272 275 276 279 282 284 283 283 285 288 285 289 292 294 294 294 296 298 297 298
247 259 246 254 255 206 262 263 261 253 261 258 257 257 261 254 259 267 277 279 280 278 283 263 268 290 293 290 268 273 273 281 281 283 284 280 283 285 284 288 287 290 288 292 297 296 297 299 295
248 248 215 258 254 264 260 269 263 258 258 271 267 257 249 267 263 261 254 279 283 282 285 288 267 289 275 265 269 272 276 276 277 277 279 279 281 279 283 283 283 287 292 290 292 293 295 295 292
240 262 215 244 257 257 265 255 258 261 265 226 263 262 233 268 270 276 276 280 281 284 286 285 286 261 264 268 272 272 272 274 275 275 279 279 280 279 281 283 285 292 292 293 293 295 297 302 302
221 255 236 224 257 259 258 245 234 221 264 244 263 260 268 267 272 272 276 280 283 284 264 282 267 264 266 268 272 273 270 271 274 275 277 277 278 284 284 287 292 292 294 295 297 297 298 297 297
230 238 210 211 216 221 259 232 235 256 242 251 251 256 265 269 273 276 278 270 251 259 261 259 262 265 268 268 270 272 271 273 274 275 277 281 284 287 289 291 293 294 293 296 298 297 296 296 295
241 249 209 241 217 221 221 254 256 231 258 262 254 258 268 272 269 276 250 253 258 260 264 265 266 265 270 269 270 273 275 275 276 279 282 287 288 286 289 292 293 296 297 298 298 297 296 296 297
217 246 244 204 248 249 252 250 258 259 263 267 269 252 266 271 258 255 258 261 266 261 265 269 267 268 269 274 275 274 276 281 285 290 290 291 292 292 293 294 294 294 295 294 294 295 295 291 291
224 206 221 197 192 207 210 213 257 227 233 241 248 247 249 255 254 259 262 260 264 268 267 264 267 269 273 275 278 280 283 286 286 287 287 289 291 291 290 291 289 289 291 291 290 291 291 292 291
204 199 195 209 209 203 221 222 228 234 237 244 240 251 254 256 261 270 264 265 265 269 270 271 271 273 274 278 282 284 286 286 288 289 292 291 289 296 306 306 304 304 301 296 295 294 293 293 294
196 224 208 211 212 212 215 219 225 238 234 238 246 245 255 256 258 265 267 266 266 268 269 271 277 279 280 281 285 286 286 288 288 289 288 296 298 299 300 301 299 300 297 296 296 295 295 296 297
224 257 229 238 221 231 228 222 230 238 250 250 254 257 258 260 265 266 266 268 270 275 276 277 280 283 283 285 285 287 289 289 296 305 304 309 305 303 301 301 301 300 299 299 299 299 299 300 298
213 225 228 229 236 237 245 236 245 253 252 252 255 259 262 265 268 270 271 272 275 275 277 280 282 284 287 286 288 291 302 304 306 305 306 307 305 304 302 298 296 297 297 297 297 297 298 299 301
236 228 234 242 239 244 255 255 250 257 254 266 264 263 265 266 268 271 273 273 272 278 280 283 287 285 287 294 299 306 306 304 303 304 304 304 310 303 301 302 300 298 296 297 296 298 297 300 298
236 240 240 247 245 245 249 250 247 251 256 255 267 266 268 269 270 270 267 275 277 280 283 285 288 296 299 301 305 303 303 303 302 304 302 301 301 306 312 308 304 298 300 298 299 298 297 296 295
242 247 250 248 251 245 249 251 254 258 259 259 263 267 269 270 266 269 271 279 282 284 287 290 296 300 301 300 302 302 301 302 301 303 302 307 309 305 312 309 303 301 299 300 298 300 299 300 301
244 245 246 248 251 252 252 254 255 256 260 265 263 265 265 272 273 279 278 281 286 290 293 294 297 298 301 300 299 298 300 301 302 304 306 308 308 311 313 313 306 302 301 302 302 302 303 303 308
244 245 246 246 248 249 247 252 256 262 262 263 265 269 274 279 279 283 288 292 295 292 295 296 301 300 300 300 297 299 300 300 301 304 307 308 312 311 313 312 305 304 305 304 304 304 307 310 312
249 249 248 247 249 249 253 258 265 252 259 266 272 276 280 286 286 291 294 296 293 295 296 295 299 298 298 299 299 301 301 303 305 309 308 311 312 313 312 308 306 307 307 306 306 308 313 314 310